Location: Kielce
(50.8833°N, 20.6167°E)
Time: 21:42:48
(UTC+02:00)

SR - Pass Details

Date: 26 April 2021
Orbit: 573 x 882 km, 66.7° (Epoch: 09 May)

Event Time Altitude Azimuth Distance (km) Brightness Sun altitude
Rises 15:36:46 0° 319° (NW) 3,472 ? 37.9°
Reaches altitude 10° 15:39:25 10° 313° (NW) 2,508 ? 37.5°
Maximum altitude 15:44:51 42° 245° (WSW) 1,164 ? 36.8°
Drops below altitude 10° 15:49:56 10° 175° (S) 2,342 ? 36.1°
Sets 15:52:21 0° 168° (SSE) 3,217 ? 35.7°
